Find Starlink 34361

NORAD ID: 64450 Int'l Des: 2025-130 Owner: SPXS Country: US Constellation: starlink operational
LEOCIRCULAR

現在のビュー

3D地球を読み込み中...

About Starlink 34361

Starlink 34361 (NORAD 64450) is a starlink constellation satellite (v2 mini) launched Jun 18, 2025 by SPXS of US. It operates in LEO, CIRCULAR orbit with a mass of 575.00 kg.

次回通過

Passes for default location (London). Set your location on the main map for personalized predictions.

高度履歴

Loading altitude history...

軌道要素

1 64450U 25130N 26263.02530108 .00012099 00000-0 36866-3 0 9991
2 64450 53.1559 261.8288 0001803 61.5639 298.5545 15.34398181 71689
Epoch: Sep 20, 2026 • Age: 22 hours

現在のステータス

高度 466.6 km
遠地点 / 近地点 N/A
速度 7.64 km/s
衛星直下点 47.14°N, 30.59°W
打ち上げ日 Jun 18, 2025
運用期間 1.2 years
タイプ internet

技術仕様

分類 Payload
質量 575.00 kg
乾燥質量 530.00 kg
長さ 0.30 m
スパン 29.00 m
形状 ? Box + pan
製造者 SPXS
バスタイプ Starlink V2MO
フェーズステータス In Orbit
所有者/国 SPXS/US

Most Searched